STARLINK-11432, 62882

Orbit data source: Space-Track

STARLINK-11432, 62882 is a payload satellite owned by SpaceX/Seattle (US) in LEO that was launched on Tue, 04 Feb 2025 UTC via an FALCON 9 launch vehicle from the Air Force Eastern Test Range (AFETR). Payload-class satellites include a variety of spacecraft equipped with specific instruments for various scientific and technological missions. These include communications satellites like Starlink; space stations such as the ISS; scientific satellites like the Hubble; Earth observation satellites from companies like Planet Labs, Umbra, and HawkEye 360; GPS; miniature CubeSats for education and research; and military/defense satellites.

Loading next visibility...
Identifier
62882, 2025-024D
Orbit
LEO
Country
Flag of USUS
Related business
Manufacturer
SpaceX/Seattle
Mission
Operational Commercial Communications
Bus & Motor
STARLINK V2MD, Unknown motor
Mass
960 kg wet, ~910 kg dry
Launch date (UTC)
Icon of a cake. It is the launch day of the satellite!2025-02-04 (1 year ago)
Launch vehicle
FALCON 9
Launch site
Air Force Eastern Test Range (AFETR)
Object type
Payload
Rocket body
Debris
Shape & HBR
Box + 2 Pan, 18.1 m
Radar Cross Section
36.964 m², Large (>1 m²)

Expand to show TLE details & history
Last TLE update: 13 hours ago

TLE from 13 hours ago
0 STARLINK-11432
1 62882U 25024D   26035.36890985  .00222672  00000-0  16841-2 0  9996
2 62882  43.0005  22.5244 0004777 278.4090  81.6236 15.70954103 58222
Epoch: 2026-02-04T08:51Z
TLE epoch observation values (Epoch: 2026-02-04T08:51:13.811Z)
Latitude
-0°
Longitude
115.18036°
Altitude
355.473 km
Speed
7.698 km/s
True Right ascension
01h 30m 05s
True Declination
0° 00' 00"
Sunlit
Object was in daylight at epoch
Visualization orbit readout
Latitude
Unknown
Longitude
Unknown
Altitude
Unknown
Speed
Unknown
Apparent Right ascension
Unknown
Apparent Declination
Unknown
Sunlit
N/A
Visualization observer readout
Local Sidereal Time
23:26:47
Azimuth
Unknown
Elevation
Unknown
Doppler factor
Unknown
Orbital elements
Apogee altitude
361.368 km
Perigee altitude
354.933 km
Semi-major axis
6,736.288 km
Eccentricity
0.00048
Inclination
43.0005°
RAAN
22.5244°
Arg. of periapsis
278.409°
True anomaly
81.67776°
Mean anomaly
81.6236°
Eccentric anomaly
81.65068°
Mean motion
3.92566 °/min
Orbital period
91.7 mins
BSTAR
0.0016841
Loading maneuver chart data...
Computing Atmospheric mass density...
Loading historical data...
Loading historical data...
Loading historical data...
Loading historical data...
Loading historical data...
Loading historical data...
Loading historical data...

Documentation

Showing up to 5 results
|